Newport News, VA

7:27 AM EST on February 12, 2016 (GMT -0500)
Newport News-Williamsburg International

Weather History for KPHF - July, 2013

Change the Weather History Date:

Thursday, July 18, 2013

  Actual Average Record
Temperature  
Mean Temperature 86 °F -  
Max Temperature 96 °F 89 °F 101 °F (1953)
Min Temperature 78 °F 70 °F 58 °F (1973)
Cooling Degree Days 22    
Growing Degree Days 36 (Base 50)    
Moisture  
Dew Point 72 °F    
Average Humidity 61    
Maximum Humidity 81    
Minimum Humidity 38    
Precipitation  
Precipitation 0.00 in - - ()
Sea Level Pressure  
Sea Level Pressure 30.09 in    
Wind  
Wind Speed 4 mph (SSW)    
Max Wind Speed 9 mph    
Max Gust Speed -    
Visibility 9 miles    
Events      
Averages and records for this station are not official NWS values.
T = Trace of Precipitation, MM = Missing Value Source: NWS Daily Summary

Daily Weather History Graph

Daily Weather History Graph

Search for Another Location

Airport or City:

Trip Planner

Search our weather history database for the weather conditions in past years. The results will help you decide how hot, cold, wet, or windy it might be!

Date:

Astronomy

Jul. 18, 2013 Rise Set
Actual Time 6:00 AM EDT 8:23 PM EDT
Civil Twilight 5:30 AM EDT 8:53 PM EDT
Nautical Twilight 4:53 AM EDT 9:30 PM EDT
Astronomical Twilight 4:12 AM EDT 10:10 PM EDT
Moon 4:19 PM EDT (7/18) 1:47 AM EDT (7/18)
Length of Visible Light 15h 23m
Length of Day
14h 23m
Waxing Gibbous, 77% of the Moon is Illuminated
Jul 18
Waxing Gibbous
Jul 22
Full
Jul 29
Last Quarter
Aug 6
New
Aug 14
First Quarter

Hourly Weather History & Observations

Time (EDT) Temp. Heat Index Dew Point Humidity Pressure Visibility Wind Dir Wind Speed Gust Speed Precip Events Conditions
12:54 AM 82.0 °F 87.4 °F 73.0 °F 74% 30.14 in 9.0 mi Calm Calm - N/A   Scattered Clouds
1:54 AM 82.0 °F 87.4 °F 73.0 °F 74% 30.12 in 9.0 mi SW 4.6 mph - N/A   Clear
2:54 AM 81.0 °F 85.8 °F 73.0 °F 77% 30.12 in 8.0 mi SW 3.5 mph - N/A   Clear
3:54 AM 81.0 °F 85.8 °F 73.0 °F 77% 30.11 in 8.0 mi SW 3.5 mph - N/A   Clear
4:54 AM 78.1 °F - 72.0 °F 81% 30.10 in 6.0 mi Calm Calm - N/A   Haze
5:54 AM 79.0 °F - 72.0 °F 79% 30.11 in 5.0 mi Calm Calm - N/A   Haze
6:54 AM 81.0 °F 86.2 °F 73.9 °F 79% 30.11 in 5.0 mi SSW 4.6 mph - N/A   Haze
7:54 AM 84.0 °F 91.2 °F 73.9 °F 72% 30.12 in 7.0 mi SSW 4.6 mph - N/A   Clear
8:54 AM 86.0 °F 93.8 °F 73.9 °F 67% 30.12 in 8.0 mi SSW 6.9 mph - N/A   Clear
9:54 AM 89.1 °F 97.0 °F 73.0 °F 59% 30.12 in 10.0 mi WSW 4.6 mph - N/A   Clear
10:54 AM 91.0 °F 99.3 °F 73.0 °F 55% 30.12 in 10.0 mi West 6.9 mph - N/A   Clear
11:54 AM 91.0 °F 97.6 °F 71.1 °F 52% 30.12 in 10.0 mi Calm Calm - N/A   Scattered Clouds
12:54 PM 93.9 °F 100.8 °F 71.1 °F 47% 30.11 in 10.0 mi Variable 4.6 mph - N/A   Mostly Cloudy
1:54 PM 95.0 °F 99.5 °F 68.0 °F 41% 30.10 in 10.0 mi South 6.9 mph - N/A   Partly Cloudy
2:54 PM 95.0 °F 97.9 °F 66.0 °F 38% 30.09 in 10.0 mi South 4.6 mph - N/A   Clear
3:54 PM 95.0 °F 100.7 °F 69.1 °F 43% 30.06 in 10.0 mi South 3.5 mph - N/A   Clear
4:54 PM 95.0 °F 101.3 °F 70.0 °F 44% 30.05 in 10.0 mi South 6.9 mph - N/A   Partly Cloudy
5:54 PM 95.0 °F 103.2 °F 72.0 °F 47% 30.04 in 10.0 mi Calm Calm - N/A   Scattered Clouds
6:54 PM 91.0 °F 98.2 °F 72.0 °F 53% 30.04 in 10.0 mi East 6.9 mph - N/A   Partly Cloudy
7:54 PM 89.1 °F 96.0 °F 72.0 °F 57% 30.04 in 10.0 mi ESE 4.6 mph - N/A   Clear
8:54 PM 89.1 °F 96.0 °F 72.0 °F 57% 30.06 in 10.0 mi SSE 4.6 mph - N/A   Partly Cloudy
9:54 PM 88.0 °F 92.9 °F 70.0 °F 55% 30.08 in 10.0 mi South 9.2 mph - N/A   Clear
10:54 PM 87.1 °F 92.8 °F 71.1 °F 59% 30.08 in 10.0 mi South 9.2 mph - N/A   Clear
11:54 PM 84.9 °F 90.7 °F 72.0 °F 65% 30.07 in 10.0 mi SSW 9.2 mph - N/A   Clear